Providence, RI

4:46 PM EST on November 17, 2017 (GMT -0500)
Green State

Weather History for KPVD - May, 2012

Change the Weather History Date:

Tuesday, May 8, 2012

  Actual Average Record
Temperature  
Mean Temperature 55 °F 56 °F  
Max Temperature 58 °F 66 °F 91 °F (2000)
Min Temperature 51 °F 46 °F 33 °F (1956)
Degree Days  
Heating Degree Days 10 9  
Month to date heating degree days 92 82  
Since 1 July heating degree days 4489 5432  
Cooling Degree Days 0 0  
Month to date cooling degree days 0 0  
Year to date cooling degree days 8 2  
Growing Degree Days 4 (Base 50)    
Moisture  
Dew Point 46 °F    
Average Humidity 74    
Maximum Humidity 93    
Minimum Humidity 55    
Precipitation  
Precipitation 0.07 in 0.11 in 2.56 in (1954)
Month to date precipitation 0.87 0.91  
Year to date precipitation 10.57 17.43  
Snow  
Snow 0.00 in 0.00 in 0.00 in (2002)
Month to date snowfall 0.0 0.0  
Since 1 July snowfall 17.8 33.8  
Snow Depth 0.00 in    
Sea Level Pressure  
Sea Level Pressure 30.04 in    
Wind  
Wind Speed 10 mph (South)    
Max Wind Speed 25 mph    
Max Gust Speed 32 mph    
Visibility 10 miles    
Events Rain    
T = Trace of Precipitation, MM = Missing Value Source: NWS Daily Summary

Daily Weather History Graph

Daily Weather History Graph

Search for Another Location

Airport or City:

Trip Planner

Search our weather history database for the weather conditions in past years. The results will help you decide how hot, cold, wet, or windy it might be!

Date:

Astronomy

May. 08, 2012 Rise Set
Actual Time 5:33 AM EDT 7:51 PM EDT
Civil Twilight 5:02 AM EDT 8:23 PM EDT
Nautical Twilight 4:23 AM EDT 9:01 PM EDT
Astronomical Twilight 3:41 AM EDT 9:44 PM EDT
Moon 11:00 PM EDT (5/8) 7:36 AM EDT (5/8)
Length of Visible Light 15h 21m
Length of Day
14h 18m
Waning Gibbous, 91% of the Moon is Illuminated
May 8
Waning Gibbous
May 12
Last Quarter
May 20
New
May 28
First Quarter
Jun 4
Full

Hourly Weather History & Observations

Time (EDT) Temp. Dew Point Humidity Pressure Visibility Wind Dir Wind Speed Gust Speed Precip Events Conditions
12:51 AM 53.1 °F 39.0 °F 59% 30.12 in 10.0 mi SSW 6.9 mph - N/A   Overcast
1:51 AM 52.0 °F 42.1 °F 69% 30.12 in 10.0 mi SSW 8.1 mph - N/A   Overcast
2:51 AM 52.0 °F 44.1 °F 74% 30.11 in 10.0 mi South 4.6 mph - 0.00 in   Overcast
3:51 AM 51.1 °F 46.0 °F 83% 30.12 in 10.0 mi South 3.5 mph - 0.00 in Rain Light Rain
4:51 AM 51.1 °F 46.0 °F 83% 30.12 in 10.0 mi Calm Calm - 0.00 in   Overcast
5:51 AM 51.1 °F 46.9 °F 86% 30.11 in 10.0 mi Calm Calm - 0.00 in   Overcast
6:51 AM 52.0 °F 46.9 °F 83% 30.12 in 10.0 mi South 4.6 mph - N/A   Overcast
7:51 AM 53.1 °F 46.9 °F 80% 30.11 in 10.0 mi SSE 10.4 mph - N/A   Overcast
8:51 AM 54.0 °F 46.0 °F 75% 30.10 in 10.0 mi SSE 10.4 mph - N/A   Overcast
9:51 AM 54.0 °F 45.0 °F 72% 30.10 in 10.0 mi South 12.7 mph - 0.00 in Rain Light Rain
10:51 AM 53.6 °F 42.8 °F 67% 30.08 in 10.0 mi South 12.7 mph - N/A   Overcast
11:51 AM 55.0 °F 41.0 °F 59% 30.06 in 10.0 mi SSE 16.1 mph 25.3 mph N/A   Overcast
12:51 PM 55.9 °F 39.0 °F 53% 30.05 in 10.0 mi South 21.9 mph 32.2 mph N/A   Overcast
1:51 PM 55.9 °F 39.9 °F 55% 30.03 in 10.0 mi South 18.4 mph 29.9 mph N/A   Overcast
2:51 PM 57.0 °F 43.0 °F 59% 30.01 in 10.0 mi South 16.1 mph 25.3 mph N/A   Overcast
3:51 PM 57.9 °F 45.0 °F 62% 29.99 in 10.0 mi South 16.1 mph 21.9 mph N/A   Overcast
4:51 PM 57.0 °F 46.9 °F 69% 29.96 in 10.0 mi SSE 13.8 mph - N/A   Overcast
5:51 PM 55.9 °F 48.0 °F 75% 29.95 in 10.0 mi South 11.5 mph - N/A   Overcast
6:51 PM 55.9 °F 50.0 °F 80% 29.94 in 10.0 mi South 11.5 mph - 0.00 in Rain Light Rain
7:51 PM 55.9 °F 51.1 °F 84% 29.93 in 10.0 mi South 12.7 mph - 0.00 in   Light Drizzle
8:51 PM 55.9 °F 51.1 °F 84% 29.93 in 10.0 mi South 9.2 mph - 0.00 in   Light Drizzle
9:51 PM 57.0 °F 52.0 °F 83% 29.94 in 10.0 mi South 9.2 mph - 0.00 in   Light Drizzle
10:51 PM 55.0 °F 53.1 °F 93% 29.93 in 10.0 mi SSE 4.6 mph - 0.00 in Rain Light Rain
11:15 PM 55.4 °F 53.6 °F 94% 29.93 in 6.0 mi South 6.9 mph - 0.01 in Rain Light Rain
11:51 PM 55.9 °F 54.0 °F 93% 29.92 in 5.0 mi South 8.1 mph - 0.05 in Rain Light Rain